Year,Month,Day,Hour,Minute,Value (Times are PST for temperature in C)
2014,09,22,00,00,17.80
2014,09,22,00,01,17.80
2014,09,22,00,02,17.80
2014,09,22,00,03,17.90
2014,09,22,00,04,17.90
2014,09,22,00,05,18.00
2014,09,22,00,06,18.00
2014,09,22,00,07,18.10
2014,09,22,00,08,18.10
2014,09,22,00,09,18.10
2014,09,22,00,10,18.10
2014,09,22,00,11,18.20
2014,09,22,00,12,18.20
2014,09,22,00,13,18.20
2014,09,22,00,14,18.20
2014,09,22,00,15,18.20
2014,09,22,00,16,18.20
2014,09,22,00,17,18.20
2014,09,22,00,18,18.20
2014,09,22,00,19,18.10
2014,09,22,00,20,18.00
2014,09,22,00,21,18.00
2014,09,22,00,22,17.90
2014,09,22,00,23,17.80
2014,09,22,00,24,17.80
2014,09,22,00,25,17.90
2014,09,22,00,26,17.90
2014,09,22,00,27,17.90
2014,09,22,00,28,17.90
2014,09,22,00,29,17.90
2014,09,22,00,30,17.90
2014,09,22,00,31,17.80
2014,09,22,00,32,17.80
2014,09,22,00,33,17.80
2014,09,22,00,34,17.80
2014,09,22,00,35,17.80
2014,09,22,00,36,17.80
2014,09,22,00,37,17.80
2014,09,22,00,38,17.80
2014,09,22,00,39,17.80
2014,09,22,00,40,17.80
2014,09,22,00,41,17.70
2014,09,22,00,42,17.80
2014,09,22,00,43,17.80
2014,09,22,00,44,17.80
2014,09,22,00,45,17.80
2014,09,22,00,46,17.80
2014,09,22,00,47,17.80
2014,09,22,00,48,17.70
2014,09,22,00,49,17.70
2014,09,22,00,50,17.70
2014,09,22,00,51,17.60
2014,09,22,00,52,17.60
2014,09,22,00,53,17.50
2014,09,22,00,54,17.50
2014,09,22,00,55,17.50
2014,09,22,00,56,17.50
2014,09,22,00,57,17.50
2014,09,22,00,58,17.50
2014,09,22,00,59,17.40
2014,09,22,01,00,17.40
2014,09,22,01,01,17.40
2014,09,22,01,02,17.40
2014,09,22,01,03,17.40
2014,09,22,01,04,17.40
2014,09,22,01,05,17.40
2014,09,22,01,06,17.40
2014,09,22,01,07,17.40
2014,09,22,01,08,17.30
2014,09,22,01,09,17.30
2014,09,22,01,10,17.30
2014,09,22,01,11,17.20
2014,09,22,01,12,17.20
2014,09,22,01,13,17.20
2014,09,22,01,14,17.10
2014,09,22,01,15,17.10
2014,09,22,01,16,17.10
2014,09,22,01,17,17.00
2014,09,22,01,18,17.00
2014,09,22,01,19,17.00
2014,09,22,01,20,17.10
2014,09,22,01,21,17.30
2014,09,22,01,22,17.50
2014,09,22,01,23,17.60
2014,09,22,01,24,17.80
2014,09,22,01,25,17.90
2014,09,22,01,26,18.00
2014,09,22,01,27,18.10
2014,09,22,01,28,18.10
2014,09,22,01,29,18.20
2014,09,22,01,30,18.20
2014,09,22,01,31,18.20
2014,09,22,01,32,18.20
2014,09,22,01,33,18.30
2014,09,22,01,34,18.20
2014,09,22,01,35,18.20
2014,09,22,01,36,18.20
2014,09,22,01,37,18.10
2014,09,22,01,38,18.10
2014,09,22,01,39,18.10
2014,09,22,01,40,18.10
2014,09,22,01,41,18.10
2014,09,22,01,42,18.00
2014,09,22,01,43,18.00
2014,09,22,01,44,17.90
2014,09,22,01,45,17.90
2014,09,22,01,46,17.90
2014,09,22,01,47,17.90
2014,09,22,01,48,17.80
2014,09,22,01,49,17.80
2014,09,22,01,50,17.80
2014,09,22,01,51,17.80
2014,09,22,01,52,17.80
2014,09,22,01,53,17.80
2014,09,22,01,54,17.80
2014,09,22,01,55,17.80
2014,09,22,01,56,17.80
2014,09,22,01,57,17.80
2014,09,22,01,58,17.80
2014,09,22,01,59,17.80
2014,09,22,02,00,17.90
2014,09,22,02,01,18.00
2014,09,22,02,02,18.00
2014,09,22,02,03,18.10
2014,09,22,02,04,18.10
2014,09,22,02,05,18.20
2014,09,22,02,06,18.20
2014,09,22,02,07,18.20
2014,09,22,02,08,18.20
2014,09,22,02,09,18.20
2014,09,22,02,10,18.20
2014,09,22,02,11,18.20
2014,09,22,02,12,18.10
2014,09,22,02,13,18.10
2014,09,22,02,14,18.10
2014,09,22,02,15,18.10
2014,09,22,02,16,18.00
2014,09,22,02,17,18.00
2014,09,22,02,18,17.90
2014,09,22,02,19,17.90
2014,09,22,02,20,17.90
2014,09,22,02,21,17.90
2014,09,22,02,22,17.90
2014,09,22,02,23,17.80
2014,09,22,02,24,17.70
2014,09,22,02,25,17.70
2014,09,22,02,26,17.60
2014,09,22,02,27,17.60
2014,09,22,02,28,17.50
2014,09,22,02,29,17.50
2014,09,22,02,30,17.40
2014,09,22,02,31,17.40
2014,09,22,02,32,17.40
2014,09,22,02,33,17.30
2014,09,22,02,34,17.30
2014,09,22,02,35,17.20
2014,09,22,02,36,17.20
2014,09,22,02,37,17.20
2014,09,22,02,38,17.10
2014,09,22,02,39,17.10
2014,09,22,02,40,17.10
2014,09,22,02,41,17.00
2014,09,22,02,42,17.00
2014,09,22,02,43,17.00
2014,09,22,02,44,16.90
2014,09,22,02,45,16.80
2014,09,22,02,46,16.80
2014,09,22,02,47,16.80
2014,09,22,02,48,16.80
2014,09,22,02,49,16.70
2014,09,22,02,50,16.70
2014,09,22,02,51,16.70
2014,09,22,02,52,16.70
2014,09,22,02,53,16.70
2014,09,22,02,54,16.70
2014,09,22,02,55,16.60
2014,09,22,02,56,16.60
2014,09,22,02,57,16.60
2014,09,22,02,58,16.60
2014,09,22,02,59,16.60
2014,09,22,03,00,16.60
2014,09,22,03,01,16.60
2014,09,22,03,02,16.60
2014,09,22,03,03,16.60
2014,09,22,03,04,16.60
2014,09,22,03,05,16.60
2014,09,22,03,06,16.60
2014,09,22,03,07,16.60
2014,09,22,03,08,16.60
2014,09,22,03,09,16.60
2014,09,22,03,10,16.60
2014,09,22,03,11,16.60
2014,09,22,03,12,16.60
2014,09,22,03,13,16.60
2014,09,22,03,14,16.60
2014,09,22,03,15,16.60
2014,09,22,03,16,16.60
2014,09,22,03,17,16.60
2014,09,22,03,18,16.60
2014,09,22,03,19,16.60
2014,09,22,03,20,16.60
2014,09,22,03,21,16.60
2014,09,22,03,22,16.60
2014,09,22,03,23,16.60
2014,09,22,03,24,16.60
2014,09,22,03,25,16.50
2014,09,22,03,26,16.50
2014,09,22,03,27,16.60
2014,09,22,03,28,16.70
2014,09,22,03,29,16.70
2014,09,22,03,30,16.80
2014,09,22,03,31,16.80
2014,09,22,03,32,16.80
2014,09,22,03,33,16.80
2014,09,22,03,34,16.80
2014,09,22,03,35,16.80
2014,09,22,03,36,16.70
2014,09,22,03,37,16.70
2014,09,22,03,38,16.60
2014,09,22,03,39,16.60
2014,09,22,03,40,16.50
2014,09,22,03,41,16.50
2014,09,22,03,42,16.50
2014,09,22,03,43,16.40
2014,09,22,03,44,16.30
2014,09,22,03,45,16.30
2014,09,22,03,46,16.30
2014,09,22,03,47,16.40
2014,09,22,03,48,16.50
2014,09,22,03,49,16.60
2014,09,22,03,50,16.80
2014,09,22,03,51,17.00
2014,09,22,03,52,17.30
2014,09,22,03,53,17.40
2014,09,22,03,54,17.60
2014,09,22,03,55,17.70
2014,09,22,03,56,17.80
2014,09,22,03,57,17.80
2014,09,22,03,58,17.80
2014,09,22,03,59,17.80
2014,09,22,04,00,17.80
2014,09,22,04,01,17.80
2014,09,22,04,02,17.80
2014,09,22,04,03,17.80
2014,09,22,04,04,17.80
2014,09,22,04,05,17.90
2014,09,22,04,06,17.90
2014,09,22,04,07,17.90
2014,09,22,04,08,18.00
2014,09,22,04,09,18.00
2014,09,22,04,10,18.10
2014,09,22,04,11,18.10
2014,09,22,04,12,18.20
2014,09,22,04,13,18.20
2014,09,22,04,14,18.20
2014,09,22,04,15,18.30
2014,09,22,04,16,18.30
2014,09,22,04,17,18.30
2014,09,22,04,18,18.30
2014,09,22,04,19,18.30
2014,09,22,04,20,18.30
2014,09,22,04,21,18.30
2014,09,22,04,22,18.30
2014,09,22,04,23,18.30
2014,09,22,04,24,18.30
2014,09,22,04,25,18.30
2014,09,22,04,26,18.30
2014,09,22,04,27,18.30
2014,09,22,04,28,18.30
2014,09,22,04,29,18.30
2014,09,22,04,30,18.30
2014,09,22,04,31,18.30
2014,09,22,04,32,18.30
2014,09,22,04,33,18.20
2014,09,22,04,34,18.20
2014,09,22,04,35,18.20
2014,09,22,04,36,18.20
2014,09,22,04,37,18.20
2014,09,22,04,38,18.20
2014,09,22,04,39,18.20
2014,09,22,04,40,18.20
2014,09,22,04,41,18.20
2014,09,22,04,42,18.20
2014,09,22,04,43,18.20
2014,09,22,04,44,18.20
2014,09,22,04,45,18.20
2014,09,22,04,46,18.20
2014,09,22,04,47,18.20
2014,09,22,04,48,18.20
2014,09,22,04,49,18.20
2014,09,22,04,50,18.20
2014,09,22,04,51,18.20
2014,09,22,04,52,18.20
2014,09,22,04,53,18.20
2014,09,22,04,54,18.20
2014,09,22,04,55,18.20
2014,09,22,04,56,18.20
2014,09,22,04,57,18.10
2014,09,22,04,58,18.10
2014,09,22,04,59,18.10
2014,09,22,05,00,18.10
2014,09,22,05,01,18.10
2014,09,22,05,02,18.10
2014,09,22,05,03,18.20
2014,09,22,05,04,18.20
2014,09,22,05,05,18.20
2014,09,22,05,06,18.10
2014,09,22,05,07,18.10
2014,09,22,05,08,18.10
2014,09,22,05,09,18.10
2014,09,22,05,10,18.10
2014,09,22,05,11,18.00
2014,09,22,05,12,18.00
2014,09,22,05,13,18.00
2014,09,22,05,14,18.00
2014,09,22,05,15,17.90
2014,09,22,05,16,17.90
2014,09,22,05,17,17.90
2014,09,22,05,18,17.90
2014,09,22,05,19,17.80
2014,09,22,05,20,17.80
2014,09,22,05,21,17.80
2014,09,22,05,22,17.70
2014,09,22,05,23,17.70
2014,09,22,05,24,17.60
2014,09,22,05,25,17.60
2014,09,22,05,26,17.60
2014,09,22,05,27,17.50
2014,09,22,05,28,17.40
2014,09,22,05,29,17.40
2014,09,22,05,30,17.30
2014,09,22,05,31,17.20
2014,09,22,05,32,17.20
2014,09,22,05,33,17.10
2014,09,22,05,34,17.10
2014,09,22,05,35,17.00
2014,09,22,05,36,17.00
2014,09,22,05,37,16.90
2014,09,22,05,38,16.90
2014,09,22,05,39,16.90
2014,09,22,05,40,16.80
2014,09,22,05,41,16.80
2014,09,22,05,42,16.70
2014,09,22,05,43,16.70
2014,09,22,05,44,16.70
2014,09,22,05,45,16.60
2014,09,22,05,46,16.60
2014,09,22,05,47,16.60
2014,09,22,05,48,16.50
2014,09,22,05,49,16.50
2014,09,22,05,50,16.40
2014,09,22,05,51,16.40
2014,09,22,05,52,16.40
2014,09,22,05,53,16.40
2014,09,22,05,54,16.40
2014,09,22,05,55,16.30
2014,09,22,05,56,16.30
2014,09,22,05,57,16.30
2014,09,22,05,58,16.30
2014,09,22,05,59,16.30
2014,09,22,06,00,16.20
2014,09,22,06,01,16.20
2014,09,22,06,02,16.20
2014,09,22,06,03,16.20
2014,09,22,06,04,16.10
2014,09,22,06,05,16.10
2014,09,22,06,06,16.10
2014,09,22,06,07,16.00
2014,09,22,06,08,16.00
2014,09,22,06,09,15.90
2014,09,22,06,10,15.90
2014,09,22,06,11,15.90
2014,09,22,06,12,15.90
2014,09,22,06,13,15.90
2014,09,22,06,14,15.80
2014,09,22,06,15,15.80
2014,09,22,06,16,15.80
2014,09,22,06,17,15.80
2014,09,22,06,18,15.80
2014,09,22,06,19,15.80
2014,09,22,06,20,15.80
2014,09,22,06,21,15.80
2014,09,22,06,22,15.80
2014,09,22,06,23,15.80
2014,09,22,06,24,15.80
2014,09,22,06,25,15.80
2014,09,22,06,26,15.80
2014,09,22,06,27,15.80
2014,09,22,06,28,15.80
2014,09,22,06,29,15.80
2014,09,22,06,30,15.80
2014,09,22,06,31,15.80
2014,09,22,06,32,15.80
2014,09,22,06,33,15.80
2014,09,22,06,34,15.80
2014,09,22,06,35,15.80
2014,09,22,06,36,15.80
2014,09,22,06,37,15.80
2014,09,22,06,38,15.80
2014,09,22,06,39,15.80
2014,09,22,06,40,15.70
2014,09,22,06,41,15.70
2014,09,22,06,42,15.70
2014,09,22,06,43,15.70
2014,09,22,06,44,15.60
2014,09,22,06,45,15.60
2014,09,22,06,46,15.60
2014,09,22,06,47,15.60
2014,09,22,06,48,15.60
2014,09,22,06,49,15.60
2014,09,22,06,50,15.60
2014,09,22,06,51,15.60
2014,09,22,06,52,15.60
2014,09,22,06,53,15.60
2014,09,22,06,54,15.60
2014,09,22,06,55,15.50
2014,09,22,06,56,15.40
2014,09,22,06,57,15.40
2014,09,22,06,58,15.40
2014,09,22,06,59,15.30
2014,09,22,07,00,15.30
2014,09,22,07,01,15.40
2014,09,22,07,02,15.40
2014,09,22,07,03,15.50
2014,09,22,07,04,15.60
2014,09,22,07,05,15.60
2014,09,22,07,06,15.60
2014,09,22,07,07,15.60
2014,09,22,07,08,15.60
2014,09,22,07,09,15.60
2014,09,22,07,10,15.60
2014,09,22,07,11,15.60
2014,09,22,07,12,15.60
2014,09,22,07,13,15.60
2014,09,22,07,14,15.60
2014,09,22,07,15,15.60
2014,09,22,07,16,15.60
2014,09,22,07,17,15.60
2014,09,22,07,18,15.60
2014,09,22,07,19,15.60
2014,09,22,07,20,15.50
2014,09,22,07,21,15.50
2014,09,22,07,22,15.50
2014,09,22,07,23,15.50
2014,09,22,07,24,15.40
2014,09,22,07,25,15.40
2014,09,22,07,26,15.40
2014,09,22,07,27,15.40
2014,09,22,07,28,15.40
2014,09,22,07,29,15.40
2014,09,22,07,30,15.40
2014,09,22,07,31,15.40
2014,09,22,07,32,15.40
2014,09,22,07,33,15.30
2014,09,22,07,34,15.30
2014,09,22,07,35,15.30
2014,09,22,07,36,15.30
2014,09,22,07,37,15.30
2014,09,22,07,38,15.30
2014,09,22,07,39,15.20
2014,09,22,07,40,15.20
2014,09,22,07,41,15.20
2014,09,22,07,42,15.20
2014,09,22,07,43,15.20
2014,09,22,07,44,15.20
2014,09,22,07,45,15.20
2014,09,22,07,46,15.20
2014,09,22,07,47,15.20
2014,09,22,07,48,15.20
2014,09,22,07,49,15.20
2014,09,22,07,50,15.10
2014,09,22,07,51,15.10
2014,09,22,07,52,15.10
2014,09,22,07,53,15.10
2014,09,22,07,54,15.10
2014,09,22,07,55,15.00
2014,09,22,07,56,15.00
2014,09,22,07,57,15.00
2014,09,22,07,58,14.90
2014,09,22,07,59,14.90
2014,09,22,08,00,14.80
2014,09,22,08,01,14.80
2014,09,22,08,02,14.80
2014,09,22,08,03,14.70
2014,09,22,08,04,14.70
2014,09,22,08,05,14.70
2014,09,22,08,06,14.70
2014,09,22,08,07,14.60
2014,09,22,08,08,14.60
2014,09,22,08,09,14.60
2014,09,22,08,10,14.60
2014,09,22,08,11,14.60
2014,09,22,08,12,14.60
2014,09,22,08,13,14.60
2014,09,22,08,14,14.60
2014,09,22,08,15,14.60
2014,09,22,08,16,14.60
2014,09,22,08,17,14.60
2014,09,22,08,18,14.70
2014,09,22,08,19,14.70
2014,09,22,08,20,14.70
2014,09,22,08,21,14.70
2014,09,22,08,22,14.70
2014,09,22,08,23,14.70
2014,09,22,08,24,14.70
2014,09,22,08,25,14.80
2014,09,22,08,26,14.80
2014,09,22,08,27,14.80
2014,09,22,08,28,14.80
2014,09,22,08,29,14.90
2014,09,22,08,30,14.90
2014,09,22,08,31,14.90
2014,09,22,08,32,15.00
2014,09,22,08,33,15.00
2014,09,22,08,34,15.10
2014,09,22,08,35,15.20
2014,09,22,08,36,15.30
2014,09,22,08,37,15.40
2014,09,22,08,38,15.40
2014,09,22,08,39,15.50
2014,09,22,08,40,15.60
2014,09,22,08,41,15.70
2014,09,22,08,42,15.80
2014,09,22,08,43,15.90
2014,09,22,08,44,16.00
2014,09,22,08,45,16.10
2014,09,22,08,46,16.10
2014,09,22,08,47,16.20
2014,09,22,08,48,16.30
2014,09,22,08,49,16.40
2014,09,22,08,50,16.50
2014,09,22,08,51,16.60
2014,09,22,08,52,16.70
2014,09,22,08,53,16.70
2014,09,22,08,54,16.80
2014,09,22,08,55,16.80
2014,09,22,08,56,16.80
2014,09,22,08,57,16.90
2014,09,22,08,58,17.00
2014,09,22,08,59,17.00
2014,09,22,09,00,17.10
2014,09,22,09,01,17.10
2014,09,22,09,02,17.10
2014,09,22,09,03,17.10
2014,09,22,09,04,17.10
2014,09,22,09,05,17.10
2014,09,22,09,06,17.10
2014,09,22,09,07,17.20
2014,09,22,09,08,17.20
2014,09,22,09,09,17.20
2014,09,22,09,10,17.30
2014,09,22,09,11,17.30
2014,09,22,09,12,17.30
2014,09,22,09,13,17.30
2014,09,22,09,14,17.40
2014,09,22,09,15,17.40
2014,09,22,09,16,17.40
2014,09,22,09,17,17.40
2014,09,22,09,18,17.30
2014,09,22,09,19,17.40
2014,09,22,09,20,17.40
2014,09,22,09,21,17.40
2014,09,22,09,22,17.40
2014,09,22,09,23,17.40
2014,09,22,09,24,17.40
2014,09,22,09,25,17.40
2014,09,22,09,26,17.50
2014,09,22,09,27,17.50
2014,09,22,09,28,17.60
2014,09,22,09,29,17.60
2014,09,22,09,30,17.60
2014,09,22,09,31,17.60
2014,09,22,09,32,17.60
2014,09,22,09,33,17.70
2014,09,22,09,34,17.70
2014,09,22,09,35,17.70
2014,09,22,09,36,17.70
2014,09,22,09,37,17.70
2014,09,22,09,38,17.70
2014,09,22,09,39,17.70
2014,09,22,09,40,17.70
2014,09,22,09,41,17.70
2014,09,22,09,42,17.70
2014,09,22,09,43,17.70
2014,09,22,09,44,17.70
2014,09,22,09,45,17.70
2014,09,22,09,46,17.70
2014,09,22,09,47,17.70
2014,09,22,09,48,17.70
2014,09,22,09,49,17.70
2014,09,22,09,50,17.60
2014,09,22,09,51,17.60
2014,09,22,09,52,17.60
2014,09,22,09,53,17.60
2014,09,22,09,54,17.60
2014,09,22,09,55,17.60
2014,09,22,09,56,17.60
2014,09,22,09,57,17.60
2014,09,22,09,58,17.60
2014,09,22,09,59,17.60
2014,09,22,10,00,17.60
2014,09,22,10,01,17.60
2014,09,22,10,02,17.60
2014,09,22,10,03,17.60
2014,09,22,10,04,17.70
2014,09,22,10,05,17.70
2014,09,22,10,06,17.70
2014,09,22,10,07,17.70
2014,09,22,10,08,17.70
2014,09,22,10,09,17.70
2014,09,22,10,10,17.70
2014,09,22,10,11,17.70
2014,09,22,10,12,17.70
2014,09,22,10,13,17.80
2014,09,22,10,14,17.80
2014,09,22,10,15,17.80
2014,09,22,10,16,17.80
2014,09,22,10,17,17.80
2014,09,22,10,18,17.90
2014,09,22,10,19,17.90
2014,09,22,10,20,17.90
2014,09,22,10,21,17.90
2014,09,22,10,22,17.90
2014,09,22,10,23,18.00
2014,09,22,10,24,17.90
2014,09,22,10,25,17.90
2014,09,22,10,26,17.90
2014,09,22,10,27,17.90
2014,09,22,10,28,17.90
2014,09,22,10,29,17.90
2014,09,22,10,30,17.80
2014,09,22,10,31,17.70
2014,09,22,10,32,17.70
2014,09,22,10,33,17.60
2014,09,22,10,34,17.60
2014,09,22,10,35,17.60
2014,09,22,10,36,17.60
2014,09,22,10,37,17.50
2014,09,22,10,38,17.50
2014,09,22,10,39,17.50
2014,09,22,10,40,17.50
2014,09,22,10,41,17.60
2014,09,22,10,42,17.60
2014,09,22,10,43,17.70
2014,09,22,10,44,17.70
2014,09,22,10,45,17.70
2014,09,22,10,46,17.70
2014,09,22,10,47,17.80
2014,09,22,10,48,17.80
2014,09,22,10,49,17.80
2014,09,22,10,50,17.90
2014,09,22,10,51,17.90
2014,09,22,10,52,17.90
2014,09,22,10,53,18.00
2014,09,22,10,54,18.00
2014,09,22,10,55,18.00
2014,09,22,10,56,18.00
2014,09,22,10,57,18.00
2014,09,22,10,58,18.10
2014,09,22,10,59,18.10
2014,09,22,11,00,18.10
2014,09,22,11,01,18.20
2014,09,22,11,02,18.20
2014,09,22,11,03,18.20
2014,09,22,11,04,18.30
2014,09,22,11,05,18.30
2014,09,22,11,06,18.30
2014,09,22,11,07,18.30
2014,09,22,11,08,18.40
2014,09,22,11,09,18.40
2014,09,22,11,10,18.40
2014,09,22,11,11,18.30
2014,09,22,11,12,18.30
2014,09,22,11,13,18.30
2014,09,22,11,14,18.30
2014,09,22,11,15,18.30
2014,09,22,11,16,18.30
2014,09,22,11,17,18.40
2014,09,22,11,18,18.40
2014,09,22,11,19,18.40
2014,09,22,11,20,18.40
2014,09,22,11,21,18.40
2014,09,22,11,22,18.40
2014,09,22,11,23,18.30
2014,09,22,11,24,18.40
2014,09,22,11,25,18.40
2014,09,22,11,26,18.40
2014,09,22,11,27,18.40
2014,09,22,11,28,18.40
2014,09,22,11,29,18.50
2014,09,22,11,30,18.50
2014,09,22,11,31,18.60
2014,09,22,11,32,18.60
2014,09,22,11,33,18.60
2014,09,22,11,34,18.70
2014,09,22,11,35,18.70
2014,09,22,11,36,18.70
2014,09,22,11,37,18.70
2014,09,22,11,38,18.80
2014,09,22,11,39,18.80
2014,09,22,11,40,18.80
2014,09,22,11,41,18.80
2014,09,22,11,42,18.70
2014,09,22,11,43,18.70
2014,09,22,11,44,18.70
2014,09,22,11,45,18.70
2014,09,22,11,46,18.70
2014,09,22,11,47,18.70
2014,09,22,11,48,18.70
2014,09,22,11,49,18.70
2014,09,22,11,50,18.70
2014,09,22,11,51,18.70
2014,09,22,11,52,18.60
2014,09,22,11,53,18.60
2014,09,22,11,54,18.50
2014,09,22,11,55,18.50
2014,09,22,11,56,18.40
2014,09,22,11,57,18.40
2014,09,22,11,58,18.50
2014,09,22,11,59,18.50
2014,09,22,12,00,18.50
2014,09,22,12,01,18.60
2014,09,22,12,02,18.60
2014,09,22,12,03,18.70
2014,09,22,12,04,18.80
2014,09,22,12,05,18.90
2014,09,22,12,06,18.90
2014,09,22,12,07,18.90
2014,09,22,12,08,19.00
2014,09,22,12,09,19.00
2014,09,22,12,10,19.10
2014,09,22,12,11,19.10
2014,09,22,12,12,19.10
2014,09,22,12,13,19.20
2014,09,22,12,14,19.10
2014,09,22,12,15,19.10
2014,09,22,12,16,19.00
2014,09,22,12,17,18.90
2014,09,22,12,18,18.80
2014,09,22,12,19,18.80
2014,09,22,12,20,18.60
2014,09,22,12,21,18.60
2014,09,22,12,22,18.60
2014,09,22,12,23,18.60
2014,09,22,12,24,18.60
2014,09,22,12,25,18.60
2014,09,22,12,26,18.50
2014,09,22,12,27,18.50
2014,09,22,12,28,18.50
2014,09,22,12,29,18.60
2014,09,22,12,30,18.60
2014,09,22,12,31,18.60
2014,09,22,12,32,18.70
2014,09,22,12,33,18.70
2014,09,22,12,34,18.80
2014,09,22,12,35,18.80
2014,09,22,12,36,18.70
2014,09,22,12,37,18.60
2014,09,22,12,38,18.60
2014,09,22,12,39,18.50
2014,09,22,12,40,18.50
2014,09,22,12,41,18.40
2014,09,22,12,42,18.40
2014,09,22,12,43,18.50
2014,09,22,12,44,18.50
2014,09,22,12,45,18.60
2014,09,22,12,46,18.60
2014,09,22,12,47,18.60
2014,09,22,12,48,18.70
2014,09,22,12,49,18.70
2014,09,22,12,50,18.70
2014,09,22,12,51,18.70
2014,09,22,12,52,18.70
2014,09,22,12,53,18.70
2014,09,22,12,54,18.70
2014,09,22,12,55,18.70
2014,09,22,12,56,18.60
2014,09,22,12,57,18.60
2014,09,22,12,58,18.50
2014,09,22,12,59,18.50
2014,09,22,13,00,18.50
2014,09,22,13,01,18.40
2014,09,22,13,02,18.30
2014,09,22,13,03,18.30
2014,09,22,13,04,18.20
2014,09,22,13,05,18.10
2014,09,22,13,06,18.00
2014,09,22,13,07,18.00
2014,09,22,13,08,18.00
2014,09,22,13,09,18.00
2014,09,22,13,10,18.00
2014,09,22,13,11,18.00
2014,09,22,13,12,18.00
2014,09,22,13,13,18.00
2014,09,22,13,14,18.00
2014,09,22,13,15,18.10
2014,09,22,13,16,18.10
2014,09,22,13,17,18.10
2014,09,22,13,18,18.10
2014,09,22,13,19,18.10
2014,09,22,13,20,18.10
2014,09,22,13,21,18.20
2014,09,22,13,22,18.20
2014,09,22,13,23,18.30
2014,09,22,13,24,18.40
2014,09,22,13,25,18.40
2014,09,22,13,26,18.50
2014,09,22,13,27,18.60
2014,09,22,13,28,18.60
2014,09,22,13,29,18.60
2014,09,22,13,30,18.70
2014,09,22,13,31,18.70
2014,09,22,13,32,18.70
2014,09,22,13,33,18.70
2014,09,22,13,34,18.80
2014,09,22,13,35,18.90
2014,09,22,13,36,19.00
2014,09,22,13,37,19.10
2014,09,22,13,38,19.20
2014,09,22,13,39,19.20
2014,09,22,13,40,19.30
2014,09,22,13,41,19.30
2014,09,22,13,42,19.40
2014,09,22,13,43,19.40
2014,09,22,13,44,19.40
2014,09,22,13,45,19.40
2014,09,22,13,46,19.30
2014,09,22,13,47,19.30
2014,09,22,13,48,19.30
2014,09,22,13,49,19.30
2014,09,22,13,50,19.30
2014,09,22,13,51,19.20
2014,09,22,13,52,19.20
2014,09,22,13,53,19.20
2014,09,22,13,54,19.20
2014,09,22,13,55,19.20
2014,09,22,13,56,19.20
2014,09,22,13,57,19.10
2014,09,22,13,58,19.10
2014,09,22,13,59,19.10
2014,09,22,14,00,19.10
2014,09,22,14,01,19.00
2014,09,22,14,02,18.90
2014,09,22,14,03,18.90
2014,09,22,14,04,18.80
2014,09,22,14,05,18.80
2014,09,22,14,06,18.80
2014,09,22,14,07,18.80
2014,09,22,14,08,18.70
2014,09,22,14,09,18.70
2014,09,22,14,10,18.60
2014,09,22,14,11,18.50
2014,09,22,14,12,18.40
2014,09,22,14,13,18.40
2014,09,22,14,14,18.30
2014,09,22,14,15,18.30
2014,09,22,14,16,18.20
2014,09,22,14,17,18.10
2014,09,22,14,18,18.10
2014,09,22,14,19,18.00
2014,09,22,14,20,18.00
2014,09,22,14,21,18.00
2014,09,22,14,22,17.90
2014,09,22,14,23,17.90
2014,09,22,14,24,17.90
2014,09,22,14,25,17.90
2014,09,22,14,26,17.90
2014,09,22,14,27,17.90
2014,09,22,14,28,17.90
2014,09,22,14,29,17.90
2014,09,22,14,30,17.90
2014,09,22,14,31,17.90
2014,09,22,14,32,17.90
2014,09,22,14,33,17.90
2014,09,22,14,34,17.90
2014,09,22,14,35,17.90
2014,09,22,14,36,17.80
2014,09,22,14,37,17.80
2014,09,22,14,38,17.70
2014,09,22,14,39,17.70
2014,09,22,14,40,17.70
2014,09,22,14,41,17.70
2014,09,22,14,42,17.70
2014,09,22,14,43,17.70
2014,09,22,14,44,17.70
2014,09,22,14,45,17.70
2014,09,22,14,46,17.70
2014,09,22,14,47,17.70
2014,09,22,14,48,17.70
2014,09,22,14,49,17.70
2014,09,22,14,50,17.70
2014,09,22,14,51,17.70
2014,09,22,14,52,17.70
2014,09,22,14,53,17.70
2014,09,22,14,54,17.70
2014,09,22,14,55,17.70
2014,09,22,14,56,17.70
2014,09,22,14,57,17.70
2014,09,22,14,58,17.70
2014,09,22,14,59,17.60
2014,09,22,15,00,17.50
2014,09,22,15,01,17.50
2014,09,22,15,02,17.40
2014,09,22,15,03,17.30
2014,09,22,15,04,17.30
2014,09,22,15,05,17.30
2014,09,22,15,06,17.20
2014,09,22,15,07,17.20
2014,09,22,15,08,17.10
2014,09,22,15,09,17.10
2014,09,22,15,10,17.00
2014,09,22,15,11,17.00
2014,09,22,15,12,17.00
2014,09,22,15,13,16.90
2014,09,22,15,14,16.90
2014,09,22,15,15,16.90
2014,09,22,15,16,16.90
2014,09,22,15,17,16.90
2014,09,22,15,18,16.90
2014,09,22,15,19,16.80
2014,09,22,15,20,16.80
2014,09,22,15,21,16.80
2014,09,22,15,22,16.80
2014,09,22,15,23,16.80
2014,09,22,15,24,16.80
2014,09,22,15,25,16.70
2014,09,22,15,26,16.70
2014,09,22,15,27,16.70
2014,09,22,15,28,16.70
2014,09,22,15,29,16.70
2014,09,22,15,30,16.60
2014,09,22,15,31,16.60
2014,09,22,15,32,16.60
2014,09,22,15,33,16.60
2014,09,22,15,34,16.60
2014,09,22,15,35,16.60
2014,09,22,15,36,16.60
2014,09,22,15,37,16.60
2014,09,22,15,38,16.60
2014,09,22,15,39,16.60
2014,09,22,15,40,16.60
2014,09,22,15,41,16.60
2014,09,22,15,42,16.60
2014,09,22,15,43,16.50
2014,09,22,15,44,16.50
2014,09,22,15,45,16.50
2014,09,22,15,46,16.40
2014,09,22,15,47,16.40
2014,09,22,15,48,16.40
2014,09,22,15,49,16.40
2014,09,22,15,50,16.40
2014,09,22,15,51,16.40
2014,09,22,15,52,16.40
2014,09,22,15,53,16.40
2014,09,22,15,54,16.40
2014,09,22,15,55,16.40
2014,09,22,15,56,16.30
2014,09,22,15,57,16.30
2014,09,22,15,58,16.30
2014,09,22,15,59,16.30
2014,09,22,16,00,16.30
2014,09,22,16,01,16.30
2014,09,22,16,02,16.30
2014,09,22,16,03,16.20
2014,09,22,16,04,16.20
2014,09,22,16,05,16.20
2014,09,22,16,06,16.20
2014,09,22,16,07,16.20
2014,09,22,16,08,16.20
2014,09,22,16,09,16.20
2014,09,22,16,10,16.20
2014,09,22,16,11,16.20
2014,09,22,16,12,16.20
2014,09,22,16,13,16.20
2014,09,22,16,14,16.20
2014,09,22,16,15,16.20
2014,09,22,16,16,16.20
2014,09,22,16,17,16.20
2014,09,22,16,18,16.10
2014,09,22,16,19,16.10
2014,09,22,16,20,16.10
2014,09,22,16,21,16.10
2014,09,22,16,22,16.20
2014,09,22,16,23,16.20
2014,09,22,16,24,16.20
2014,09,22,16,25,16.20
2014,09,22,16,26,16.20
2014,09,22,16,27,16.20
2014,09,22,16,28,16.30
2014,09,22,16,29,16.30
2014,09,22,16,30,16.30
2014,09,22,16,31,16.30
2014,09,22,16,32,16.30
2014,09,22,16,33,16.30
2014,09,22,16,34,16.40
2014,09,22,16,35,16.30
2014,09,22,16,36,16.30
2014,09,22,16,37,16.30
2014,09,22,16,38,16.30
2014,09,22,16,39,16.30
2014,09,22,16,40,16.30
2014,09,22,16,41,16.30
2014,09,22,16,42,16.30
2014,09,22,16,43,16.30
2014,09,22,16,44,16.30
2014,09,22,16,45,16.30
2014,09,22,16,46,16.30
2014,09,22,16,47,16.30
2014,09,22,16,48,16.30
2014,09,22,16,49,16.30
2014,09,22,16,50,16.30
2014,09,22,16,51,16.30
2014,09,22,16,52,16.30
2014,09,22,16,53,16.30
2014,09,22,16,54,16.30
2014,09,22,16,55,16.30
2014,09,22,16,56,16.30
2014,09,22,16,57,16.20
2014,09,22,16,58,16.20
2014,09,22,16,59,16.20
2014,09,22,17,00,16.20
2014,09,22,17,01,16.20
2014,09,22,17,02,16.20
2014,09,22,17,03,16.20
2014,09,22,17,04,16.10
2014,09,22,17,05,16.10
2014,09,22,17,06,16.10
2014,09,22,17,07,16.10
2014,09,22,17,08,16.10
2014,09,22,17,09,16.10
2014,09,22,17,10,16.10
2014,09,22,17,11,16.10
2014,09,22,17,12,16.10
2014,09,22,17,13,16.10
2014,09,22,17,14,16.10
2014,09,22,17,15,16.10
2014,09,22,17,16,16.00
2014,09,22,17,17,16.00
2014,09,22,17,18,16.00
2014,09,22,17,19,15.90